Overview Statistics Trail Chart Weather Telemetry Raw packets
 

This is the latest recevied weather packets stored in our database for station/object LU1MQF-13. If no packets are shown the sender has not sent any weather packets the latest 10 day(s).

<< 13 14 15 16 17 18 19 >>
Time Temp. Humidity Pressure Rain* Wind** Luminosity Snow
1777704120 13.89° C 37% 950.1 hPa - - - -
1777703220 13.89° C 37% 950.1 hPa - - - -
1777702320 13.89° C 38% 950.1 hPa - - - -
1777701420 13.89° C 38% 950 hPa - - - -
1777700520 13.89° C 39% 949.9 hPa - - - -
1777699620 13.89° C 39% 949.8 hPa - - - -
1777698720 15° C 40% 949.6 hPa - - - -
1777697820 15° C 42% 949.2 hPa - - - -
1777696919 15° C 40% 949 hPa - - - -
1777696028 13.89° C 36% 948.8 hPa - - - -
1777695120 15° C 36% 948.6 hPa - - - -
1777694220 15° C 36% 948.5 hPa - - - -
1777693321 15° C 36% 948.4 hPa - - - -
1777692420 15° C 36% 948.1 hPa - - - -
1777691520 15° C 36% 948 hPa - - - -
1777690620 16.11° C 35% 948 hPa - - - -
1777689720 16.11° C 35% 947.8 hPa - - - -
1777688820 16.11° C 36% 947.7 hPa - - - -
1777687920 16.11° C 38% 947.3 hPa - - - -
1777687020 16.11° C 35% 947.1 hPa - - - -
1777686120 16.11° C 35% 947.1 hPa - - - -
1777685220 16.11° C 35% 946.7 hPa - - - -
1777684319 16.11° C 35% 946.3 hPa - - - -
1777683420 17.22° C 35% 946 hPa - - - -
1777681621 17.22° C 37% 945.5 hPa - - - -

* Rain since midnight (hover to see other rain measurements)
** Current wind speed in m/s (hover to see current wind gust speed)